Location: Bord�res
(43.2000°N, 0.2167°W)
Time: 15:08:41
(UTC+00:00)

Cosmos 1869 Rocket - Pass Details

Date: 03 March 2021
Orbit: 605 x 633 km, 82.5° (Epoch: 20 April)

Event Time Altitude Azimuth Distance (km) Brightness Sun altitude
Rises 19:49:13 0° 188° (S) 2,855 6.9 -21.9°
Reaches altitude 10° 19:51:25 10° 189° (S) 1,959 6.1 -22.3°
Maximum altitude 19:55:46 85° 277° (W) 622 3.5 -23.1°
Drops below altitude 10° 20:00:11 10° 7° (N) 1,992 6.2 -23.9°
Sets 20:02:26 0° 8° (N) 2,908 7.1 -24.3°
